User: anonymous   Login
Location: Zagreb
(45.8000°N, 16.0000°E)
Time: 22:14:22
(UTC+02:00)
Language:

Explorer 7 - Orbit

View from above orbital plane
View from above orbital plane
View from above satellite
View from above satellite

Ground track
Ground track

The orbit data is extracted from the following two-line orbital elements,

1    22U 59009A   22221.14310471  .00001572  00000-0  13392-3 0  9993
2    22  50.2844  25.9494 0134151  12.2748 348.1415 14.97267285342489
Epoch (UTC): 09 August 2022 03:26:04
Eccentricity: 0.0134151
inclination: 50.2844°
perigee height: 482 km
apogee height: 668 km
right ascension of ascending node: 25.9494°
argument of perigee: 12.2748°
revolutions per day: 14.97267285
mean anomaly at epoch: 348.1415°
orbit number at epoch: 34248

The dashed part of the orbit path shows where the satellite is in the earth's shadow,  

DLR